Location: *
(48.8780°N, 19.2358°E)
Time: 10:20:38
(UTC+00:00)

Cosmos 1802 Rocket - Pass Details

Date: 18 October 2019
Orbit: 954 x 1011 km, 82.9° (Epoch: 21 November)

Event Time Altitude Azimuth Distance (km) Brightness Sun altitude
Rises 17:49:22 0° 352° (N) 3,758 7.3 -20.6°
Reaches altitude 10° 17:51:59 10° 357° (N) 2,804 6.5 -21.0°
Maximum altitude 17:58:21 59° 76° (ENE) 1,158 4.0 -22.0°
Enters shadow 18:01:02 35° 140° (SE) 1,578 4.7 -22.5°
